Location: Worth Mountain WMA
(34.9569°N, 81.4819°W)
Time: 17:10:44
(UTC-04:00)

Amateur Radio Satellites - All Passes

Search period start: 04 May 2016 16:40
Search period end: 05 May 2016 16:40
Location: Worth Mountain WMA, 34.9569°N, 81.4819°W

Satellite Date Start Highest point End Downlink Frequencies (MHz)
Time Altitude Azimuth
SO-50 04 May 16:51:20 16:56:01 76° 243° (WSW) 17:00:32 436.795
AO-7 04 May 16:57:23 17:05:26 56° 257° (WSW) 17:13:34 29.400- 29.500
KKS-1 04 May 17:08:01 17:12:31 85° 105° (ESE) 17:16:57 437.445
BEESAT 04 May 17:13:55 17:15:30 12° 296° (WNW) 17:17:06 436.000
STARS 04 May 17:19:33 17:23:53 56° 101° (E) 17:28:10 437.465
MOZHAYETS 4 04 May 17:24:54 17:29:29 84° 101° (ESE) 17:34:04
HORYU 2 04 May 17:29:50 17:34:18 81° 258° (WSW) 17:38:47 437.375
Cosmos 2491 04 May 17:35:59 17:43:33 31° 73° (ENE) 17:51:00 435.465 / 435.565
CUTE-I 04 May 17:39:59 17:42:38 14° 63° (ENE) 17:45:16 437.470
CUBESAT XI-V 04 May 17:40:49 17:42:20 11° 91° (E) 17:43:51 437.345
BEESAT 3 04 May 17:45:41 17:48:46 22° 111° (ESE) 17:51:52 437.485
YUBILEINY 04 May 17:47:00 17:51:04 14° 78° (ENE) 17:55:07 435.215
JUGNU 04 May 17:54:22 17:57:37 15° 171° (S) 18:00:51 437.505
BEESAT 2 04 May 17:57:17 17:59:55 17° 110° (ESE) 18:02:33 435.950
LilacSat-2 04 May 18:05:47 18:08:07 15° 69° (ENE) 18:10:26 437.200
NOAA 18 04 May 18:06:37 18:11:37 36° 69° (ENE) 18:16:35 137.9125
NOAA 15 04 May 18:13:10 18:18:10 46° 71° (ENE) 18:23:11 137.62
Cubesat XI-IV 04 May 18:22:27 18:27:16 36° 70° (ENE) 18:32:06 437.490
M-CUBED/EXP-1 PRIME 04 May 18:23:10 18:25:56 16° 62° (ENE) 18:28:39 437.505
BRITE-PL 04 May 18:31:34 18:36:01 39° 71° (ENE) 18:40:51 437.365/2234.400
AUBIESAT-1 04 May 18:39:34 18:42:46 19° 64° (ENE) 18:45:57 437.475
STARS 04 May 18:58:15 18:59:43 12° 295° (WNW) 19:01:11 437.465
SRMSAT 04 May 18:59:19 19:00:52 11° 165° (SSE) 19:02:25 437.500
CUBESAT XI-V 04 May 19:15:24 19:20:01 58° 285° (WNW) 19:24:38 437.345
HO-68 04 May 19:15:54 19:20:22 18° 59° (ENE) 19:24:48 435.675
CUTE-I 04 May 19:16:47 19:22:04 66° 259° (WSW) 19:27:22 437.470
DOVE 4 04 May 19:19:08 19:23:31 30° 70° (ENE) 19:28:02 437.250
BEESAT 3 04 May 19:23:04 19:26:20 24° 306° (NW) 19:29:37 437.485
Cosmos 2491 04 May 19:32:14 19:40:36 51° 271° (W) 19:48:55 435.465 / 435.565
GOMX 1 04 May 19:32:27 19:37:27 82° 76° (ENE) 19:42:47 467.674
BEESAT 2 04 May 19:33:55 19:37:29 32° 304° (NW) 19:41:06 435.950
YUBILEINY 04 May 19:37:46 19:46:31 89° 98° (E) 19:55:17 435.215
LilacSat-2 04 May 19:38:42 19:42:08 30° 263° (W) 19:45:36 437.200
JUGNU 04 May 19:42:00 19:45:53 18° 181° (S) 19:49:47 437.505
STRAND 1 04 May 19:44:56 19:48:46 21° 95° (E) 19:52:35 437.568
AIST 2 04 May 19:45:22 19:48:08 18° 110° (ESE) 19:50:55 435.215
CUTE 1.7 + AOD 2 04 May 19:45:54 19:47:47 13° 67° (ENE) 19:49:39 437.475
NOAA 18 04 May 19:47:46 19:52:16 25° 263° (W) 19:56:46 137.9125
CINEMA 3 04 May 19:48:47 19:52:14 19° 67° (ENE) 19:55:40 145.822/145.860
NOAA 15 04 May 19:54:32 19:58:06 18° 266° (W) 20:01:42 137.62
M-CUBED/EXP-1 PRIME 04 May 19:55:24 20:00:00 53° 255° (WSW) 20:04:35 437.505
Cosmos 2504 04 May 19:57:27 20:03:11 26° 86° (E) 20:08:50 435.465 / 435.565
Cubesat XI-IV 04 May 20:03:08 20:07:22 24° 265° (W) 20:11:36 437.490
SEEDS 04 May 20:08:31 20:11:12 17° 69° (ENE) 20:13:55 437.485
COMPASS 1 04 May 20:09:21 20:10:52 12° 67° (ENE) 20:12:22 437.405
BRITE-PL 04 May 20:11:15 20:14:41 19° 268° (W) 20:18:18 437.365/2234.400
AUBIESAT-1 04 May 20:12:32 20:16:55 41° 256° (WSW) 20:21:16 437.475
CUBEBUG 2 04 May 20:23:30 20:25:37 13° 66° (ENE) 20:27:42 437.445
RS-15 04 May 20:30:28 20:39:09 27° 102° (ESE) 20:48:09 29.354- 29.394
AAUSAT CUBESAT 2 04 May 20:36:27 20:39:27 20° 70° (ENE) 20:42:27 437.432
SRMSAT 04 May 20:45:27 20:49:17 17° 175° (S) 20:53:07 437.500
CANX-2 04 May 20:46:33 20:50:45 82° 76° (ENE) 20:54:59 2200.000
DOVE 4 04 May 20:56:43 21:01:05 29° 265° (W) 21:05:36 437.250
HO-68 04 May 21:00:03 21:07:14 79° 256° (WSW) 21:14:25 435.675
Oscar 11 04 May 21:14:07 21:17:28 23° 70° (ENE) 21:20:50 145.826/435.025
CUTE 1.7 + AOD 2 04 May 21:19:09 21:23:11 44° 261° (W) 21:27:14 437.475
PRISM 04 May 21:20:11 21:24:08 39° 99° (E) 21:28:03 437.425
AIST 2 04 May 21:22:35 21:26:20 33° 305° (NW) 21:30:07 435.215
STRAND 1 04 May 21:23:18 21:28:00 38° 289° (WNW) 21:32:41 437.568
CINEMA 3 04 May 21:24:12 21:28:57 44° 261° (W) 21:33:45 145.822/145.860
FUNcube-1 04 May 21:28:17 21:32:07 28° 71° (ENE) 21:35:54 145.935
JUGNU 04 May 21:31:13 21:34:10 14° 191° (S) 21:37:08 437.505
DELFI C3 04 May 21:33:15 21:35:40 16° 69° (ENE) 21:38:05 145.870
YUBILEINY 04 May 21:39:28 21:44:25 16° 294° (WNW) 21:49:23 435.215
COMPASS 1 04 May 21:42:01 21:45:59 46° 261° (W) 21:49:58 437.405
SEEDS 04 May 21:42:54 21:46:38 32° 262° (W) 21:50:23 437.485
UWE-3 04 May 21:45:02 21:49:39 72° 76° (ENE) 21:54:13 435.000/436.395/437.385
Cosmos 2504 04 May 21:49:13 21:56:08 45° 281° (WNW) 22:02:57 435.465 / 435.565
CUBEBUG 2 04 May 21:57:03 22:01:43 57° 260° (W) 22:06:21 437.445
ZACube-1 04 May 22:10:55 22:15:28 87° 258° (WSW) 22:19:57 437.345
AAUSAT CUBESAT 2 04 May 22:11:19 22:14:45 26° 263° (W) 22:18:14 437.432
AO-85 04 May 22:13:24 22:18:06 82° 59° (ENE) 22:22:20 145.980
SRMSAT 04 May 22:33:53 22:37:45 18° 185° (S) 22:41:37 437.500
RS-15 04 May 22:39:09 22:50:20 73° 301° (WNW) 23:02:15 29.354- 29.394
TIGRISAT 04 May 22:44:38 22:46:20 12° 92° (E) 22:48:02 435.000
Oscar 11 04 May 22:49:52 22:53:27 25° 264° (W) 22:57:03 145.826/435.025
HO-68 04 May 22:55:17 22:55:49 10° 270° (W) 22:56:22 435.675
HUMSAT D 04 May 22:55:33 22:59:46 73° 76° (ENE) 23:03:56 437.325/437.525
PRISM 04 May 22:56:49 22:59:04 14° 293° (WNW) 23:01:20 437.425
FUNcube-1 04 May 23:04:45 23:08:17 22° 264° (W) 23:11:47 145.935
DELFI C3 04 May 23:06:47 23:10:16 30° 263° (W) 23:13:46 145.870
ANTELSAT 04 May 23:08:23 23:11:58 26° 96° (E) 23:15:31 437.575/2403.000
AISAT 04 May 23:11:09 23:13:35 15° 66° (ENE) 23:16:01 437.250
GONETS M04 04 May 23:30:53 23:35:45 16° 79° (E) 23:40:36
ESTCUBE 1 04 May 23:36:53 23:41:00 37° 72° (ENE) 23:45:08 437.505/2401.250
CUBEBUG 1 04 May 23:40:11 23:43:55 28° 71° (ENE) 23:47:39 437.445
50 SAT 04 May 23:55:29 23:58:59 47° 75° (ENE) 00:02:30 437.505
DX 1 05 May 00:02:04 00:06:14 46° 73° (ENE) 00:10:26 434.975-435.025
UNISAT 6 05 May 00:02:16 00:06:33 68° 284° (WNW) 00:10:45 437.425
UKube-1 05 May 00:04:31 00:08:32 39° 72° (ENE) 00:12:34 .
DUCHIFAT 1 05 May 00:10:01 00:13:12 21° 95° (E) 00:16:22 145.980
VELOX 1 05 May 00:12:46 00:17:09 70° 76° (ENE) 00:21:35 145.980
QB50P2 05 May 00:13:14 00:16:51 27° 97° (E) 00:20:25 145.880/145.840
POLYITAN 1 05 May 00:15:25 00:19:02 27° 97° (E) 00:22:37 437.675
POPSAT HIP 1 05 May 00:17:22 00:21:01 28° 97° (E) 00:24:39 437.405
TIGRISAT 05 May 00:19:10 00:23:15 44° 286° (WNW) 00:27:17 435.000
QB50P1 05 May 00:20:16 00:24:03 31° 98° (E) 00:27:47 145.935-145.965
SRMSAT 05 May 00:24:24 00:26:10 11° 195° (SSW) 00:27:57 437.500
SPROUT 05 May 00:30:12 00:34:10 37° 73° (ENE) 00:38:10 437.525
BUGSAT 1 05 May 00:42:20 00:45:40 23° 96° (E) 00:48:57 437.445
ANTELSAT 05 May 00:45:15 00:48:32 22° 291° (WNW) 00:51:48 437.575/2403.000
AISAT 05 May 00:45:23 00:49:37 45° 260° (W) 00:53:55 437.250
NANOSAT C BR1 05 May 00:53:27 00:57:41 79° 103° (ESE) 01:01:52 145.865
AIST 1 05 May 00:56:15 01:00:32 87° 96° (E) 01:04:55
TISAT 1 05 May 00:56:35 00:59:46 21° 69° (ENE) 01:02:59 437.305
RS-15 05 May 00:56:56 01:05:24 22° 328° (NNW) 01:14:13 29.354- 29.394
O/OREOS (USA 219) 05 May 01:09:44 01:14:14 69° 69° (ENE) 01:18:41 437.305
ESTCUBE 1 05 May 01:15:06 01:17:54 16° 266° (W) 01:20:43 437.505/2401.250
PCSat 05 May 01:16:44 01:22:09 65° 62° (ENE) 01:27:31 145.827
CUBEBUG 1 05 May 01:16:48 01:20:09 21° 265° (W) 01:23:31 437.445
GONETS M04 05 May 01:22:27 01:31:19 85° 275° (W) 01:40:13
CUSAT 1 05 May 01:28:13 01:34:13 25° 71° (ENE) 01:40:31 437.405
JAS-2 05 May 01:36:46 01:43:49 35° 95° (E) 01:50:38 435.910
DX 1 05 May 01:40:42 01:42:38 13° 267° (W) 01:44:34 434.975-435.025
UKube-1 05 May 01:42:17 01:44:42 15° 266° (W) 01:47:07 .
DUCHIFAT 1 05 May 01:45:21 01:48:51 26° 289° (WNW) 01:52:19 145.980
Cosmos 2499 05 May 01:47:58 01:55:02 79° 95° (E) 02:02:08 435.465 / 435.565
QB50P2 05 May 01:49:19 01:52:27 20° 291° (WNW) 01:55:35 145.880/145.840
POLYITAN 1 05 May 01:51:33 01:54:38 20° 291° (WNW) 01:57:43 437.675
POPSAT HIP 1 05 May 01:53:33 01:56:36 20° 291° (WNW) 01:59:39 437.405
QB50P1 05 May 01:56:42 01:59:34 18° 292° (WNW) 02:02:26 145.935-145.965
ITUPSAT 1 05 May 01:57:06 02:00:23 19° 67° (ENE) 02:03:40 437.325
SWISSCUBE 05 May 02:04:33 02:08:26 26° 69° (ENE) 02:12:19 437.505
SPROUT 05 May 02:07:41 02:10:14 15° 267° (W) 02:12:47 437.525
BUGSAT 1 05 May 02:17:37 02:20:56 23° 290° (WNW) 02:24:12 437.445
DANDE 05 May 02:30:47 02:37:17 37° 77° (ENE) 02:44:44 436.750
TISAT 1 05 May 02:31:39 02:35:15 27° 263° (W) 02:38:53 437.305
BEESAT 05 May 02:36:37 02:41:13 51° 73° (ENE) 02:45:49 436.000
Oscar 19 05 May 02:47:03 02:52:15 71° 102° (ESE) 02:57:23 437.125/150
Gurwin Techsat 1B 05 May 03:00:43 03:05:37 37° 98° (E) 03:10:29 435.225
PCSat 05 May 03:02:19 03:04:54 14° 257° (WSW) 03:07:30 145.827
CUSAT 1 05 May 03:09:08 03:16:42 66° 266° (W) 03:24:40 437.405
RS-15 05 May 03:19:31 03:24:50 13° 6° (N) 03:30:12 29.354- 29.394
JAS-2 05 May 03:21:24 03:28:46 46° 291° (WNW) 03:36:01 435.910
GONETS M04 05 May 03:24:51 03:29:24 15° 295° (WNW) 03:33:58
ITUPSAT 1 05 May 03:33:29 03:37:54 38° 261° (W) 03:42:21 437.325
SWISSCUBE 05 May 03:42:04 03:46:05 27° 263° (W) 03:50:09 437.505
BEESAT 3 05 May 03:42:35 03:46:30 64° 60° (ENE) 03:50:24 437.485
Cosmos 2499 05 May 03:45:24 03:48:56 14° 292° (WNW) 03:52:30 435.465 / 435.565
BEESAT 2 05 May 03:54:36 03:58:29 48° 58° (ENE) 04:02:19 435.950
KKS-1 05 May 04:02:34 04:06:53 50° 74° (ENE) 04:11:15 437.445
ITAMSAT 1 05 May 04:10:49 04:16:01 73° 103° (ESE) 04:21:11 435.822/435.867
STARS 05 May 04:13:00 04:16:57 33° 71° (ENE) 04:20:55 437.465
DANDE 05 May 04:13:24 04:20:04 42° 268° (W) 04:27:42 436.750
BEESAT 05 May 04:16:55 04:19:14 13° 267° (W) 04:21:34 436.000
MOZHAYETS 4 05 May 04:23:19 04:27:44 52° 74° (ENE) 04:32:11
Oscar 19 05 May 04:28:47 04:30:54 13° 297° (WNW) 04:33:01 437.125/150
Gurwin Techsat 1B 05 May 04:41:09 04:45:19 24° 293° (WNW) 04:49:29 435.225
CUSAT 1 05 May 04:57:21 04:57:40 10° 279° (W) 04:57:58 437.405
AO-7 05 May 05:02:20 05:10:37 63° 104° (ESE) 05:18:51 29.400- 29.500
HORYU 2 05 May 05:24:40 05:28:16 24° 96° (E) 05:31:49 437.375
RS-15 05 May 05:32:56 05:43:22 31° 41° (NE) 05:53:46 29.354- 29.394
ISS 05 May 05:33:43 05:35:01 12° 127° (SE) 05:36:19 145.825
BEESAT 2 05 May 05:34:47 05:35:51 11° 252° (WSW) 05:36:55 435.950
KKS-1 05 May 05:41:55 05:43:42 12° 267° (W) 05:45:30 437.445
AIST 2 05 May 05:46:31 05:50:35 53° 58° (ENE) 05:54:37 435.215
STARS 05 May 05:50:13 05:53:20 19° 265° (W) 05:56:28 437.465
YUBILEINY 05 May 05:52:31 06:00:26 37° 75° (ENE) 06:08:19 435.215
ITAMSAT 1 05 May 05:52:49 05:54:49 12° 298° (WNW) 05:56:49 435.822/435.867
MOZHAYETS 4 05 May 06:03:26 06:05:10 12° 268° (W) 06:06:54
CUBESAT XI-V 05 May 06:15:02 06:19:37 89° 257° (WSW) 06:24:16 437.345
NOAA 15 05 May 06:32:16 06:36:23 23° 95° (E) 06:40:29 137.62
NOAA 18 05 May 06:32:40 06:36:33 20° 95° (E) 06:40:24 137.9125
Cosmos 2491 05 May 06:32:43 06:40:40 40° 87° (E) 06:48:39 435.465 / 435.565
BRITE-PL 05 May 06:40:16 06:44:21 20° 92° (E) 06:48:18 437.365/2234.400
Cubesat XI-IV 05 May 06:43:44 06:47:24 19° 94° (E) 06:51:04 437.490
AO-7 05 May 06:56:10 07:02:44 27° 301° (WNW) 07:09:20 29.400- 29.500
STRAND 1 05 May 06:57:50 07:01:43 22° 67° (ENE) 07:05:37 437.568
HORYU 2 05 May 07:01:06 07:04:43 25° 290° (WNW) 07:08:19 437.375
SO-50 05 May 07:01:36 07:06:29 77° 118° (ESE) 07:11:24 436.795
ISS 05 May 07:07:57 07:11:07 49° 320° (NW) 07:14:18 145.825
LilacSat-2 05 May 07:15:11 07:18:37 33° 97° (E) 07:22:02 437.200
AIST 2 05 May 07:27:34 07:28:33 11° 253° (WSW) 07:29:33 435.215
CUTE-I 05 May 07:37:07 07:42:25 66° 102° (ESE) 07:47:42 437.470
GOMX 1 05 May 07:38:18 07:43:08 34° 96° (E) 07:47:43 467.674
M-CUBED/EXP-1 PRIME 05 May 07:40:55 07:42:18 12° 96° (E) 07:43:39 437.505
Cosmos 2504 05 May 07:43:42 07:51:12 50° 79° (E) 07:59:12 435.465 / 435.565
RS-15 05 May 07:44:59 07:57:22 84° 244° (WSW) 08:09:37 29.354- 29.394
YUBILEINY 05 May 07:49:14 07:57:09 41° 272° (W) 08:05:07 435.215
AUBIESAT-1 05 May 07:56:31 07:58:42 15° 98° (E) 08:00:49 437.475
PRISM 05 May 08:07:20 08:10:11 19° 68° (ENE) 08:13:03 437.425
NOAA 15 05 May 08:11:19 08:16:12 38° 290° (WNW) 08:21:05 137.62
NOAA 18 05 May 08:12:12 08:17:22 45° 289° (WNW) 08:22:32 137.9125
BRITE-PL 05 May 08:17:32 08:23:00 48° 287° (WNW) 08:28:16 437.365/2234.400
Cubesat XI-IV 05 May 08:22:35 08:27:39 45° 288° (WNW) 08:32:42 437.490
Cosmos 2491 05 May 08:29:16 08:37:22 40° 284° (WNW) 08:45:32 435.465 / 435.565
HO-68 05 May 08:32:28 08:38:01 24° 95° (E) 08:43:32 435.675
PHONESAT 2.4 05 May 08:35:50 08:38:33 27° 148° (SSE) 08:41:17 2401.200-2431.200
CANX-2 05 May 08:35:52 08:38:44 18° 94° (E) 08:41:36 2200.000
STRAND 1 05 May 08:35:58 08:40:38 36° 261° (W) 08:45:20 437.568
SO-50 05 May 08:45:00 08:47:32 14° 315° (NW) 08:50:04 436.795
LilacSat-2 05 May 08:50:43 08:52:36 13° 292° (WNW) 08:54:28 437.200
DOVE 4 05 May 08:58:38 09:03:41 73° 284° (WNW) 09:08:22 437.250
CUTE 1.7 + AOD 2 05 May 09:07:16 09:11:11 36° 98° (E) 09:15:06 437.475
M-CUBED/EXP-1 PRIME 05 May 09:13:39 09:17:05 33° 293° (WNW) 09:20:17 437.505
GOMX 1 05 May 09:16:37 09:20:58 26° 292° (WNW) 09:25:08 467.674
CUTE-I 05 May 09:19:12 09:21:52 14° 297° (WNW) 09:24:31 437.470
CINEMA 3 05 May 09:22:36 09:27:05 59° 100° (E) 09:31:21 145.822/145.860
COMPASS 1 05 May 09:28:09 09:31:54 32° 97° (E) 09:35:39 437.405
SEEDS 05 May 09:29:31 09:33:36 49° 100° (E) 09:37:40 437.485
AUBIESAT-1 05 May 09:30:08 09:33:16 26° 294° (WNW) 09:36:13 437.475
Cosmos 2504 05 May 09:37:51 09:44:10 28° 274° (W) 09:50:50 435.465 / 435.565
UWE-3 05 May 09:39:27 09:42:11 17° 94° (E) 09:44:53 435.000/436.395/437.385
PRISM 05 May 09:41:46 09:45:17 28° 263° (W) 09:48:50 437.425
CUBEBUG 2 05 May 09:51:46 09:55:41 35° 98° (E) 09:59:31 437.445
AAUSAT CUBESAT 2 05 May 09:56:01 10:00:07 57° 101° (E) 10:04:12 437.432
RS-15 05 May 10:00:46 10:08:00 18° 262° (W) 10:15:13 29.354- 29.394
ZACube-1 05 May 10:03:33 10:06:44 21° 95° (E) 10:09:54 437.345
ANTELSAT 05 May 10:04:31 10:07:34 18° 68° (ENE) 10:10:37 437.575/2403.000
CANX-2 05 May 10:10:53 10:14:36 31° 288° (WNW) 10:18:19 2200.000
PHONESAT 2.4 05 May 10:12:13 10:15:18 52° 343° (NNW) 10:18:23 2401.200-2431.200
HO-68 05 May 10:19:03 10:26:00 55° 290° (WNW) 10:32:55 435.675
Oscar 11 05 May 10:39:24 10:43:43 72° 102° (ESE) 10:48:00 145.826/435.025
HUMSAT D 05 May 10:43:51 10:46:01 14° 93° (E) 10:48:11 437.325/437.525
CUTE 1.7 + AOD 2 05 May 10:44:12 10:46:42 15° 292° (WNW) 10:49:11 437.475
DELFI C3 05 May 10:47:18 10:51:03 39° 99° (E) 10:54:48 145.870
FUNcube-1 05 May 10:55:06 10:59:17 90° 193° (SSW) 11:03:23 145.935
UNISAT 6 05 May 10:57:07 11:01:45 69° 75° (ENE) 11:06:18 437.425
DUCHIFAT 1 05 May 11:00:51 11:02:00 11° 65° (ENE) 11:03:09 145.980
CINEMA 3 05 May 11:02:23 11:03:36 11° 296° (WNW) 11:04:47 145.822/145.860
QB50P2 05 May 11:03:52 11:06:12 15° 67° (ENE) 11:08:33 145.880/145.840
COMPASS 1 05 May 11:04:30 11:07:12 17° 291° (WNW) 11:09:53 437.405
POLYITAN 1 05 May 11:05:59 11:08:24 15° 67° (ENE) 11:10:48 437.675
SEEDS 05 May 11:07:21 11:08:50 12° 294° (WNW) 11:10:20 437.485
POPSAT HIP 1 05 May 11:07:47 11:10:14 15° 67° (ENE) 11:12:41 437.405
AIST 1 05 May 11:07:57 11:10:38 16° 74° (ENE) 11:13:18
QB50P1 05 May 11:10:27 11:13:08 16° 68° (ENE) 11:15:50 145.935-145.965
TIGRISAT 05 May 11:13:38 11:18:18 82° 259° (W) 11:22:54 435.000
UWE-3 05 May 11:15:00 11:18:43 31° 288° (WNW) 11:22:21 435.000/436.395/437.385
CUBEBUG 2 05 May 11:29:28 11:31:58 15° 293° (WNW) 11:34:27 437.445
BUGSAT 1 05 May 11:30:43 11:32:10 12° 65° (ENE) 11:33:36 437.445
ESTCUBE 1 05 May 11:35:50 11:36:12 10° 91° (E) 11:36:34 437.505/2401.250
GONETS M04 05 May 11:37:24 11:45:32 41° 76° (ENE) 11:53:33
ZACube-1 05 May 11:39:35 11:42:57 24° 289° (WNW) 11:46:18 437.345
ANTELSAT 05 May 11:39:38 11:43:57 39° 261° (W) 11:48:15 437.575/2403.000
NANOSAT C BR1 05 May 11:42:16 11:46:11 36° 73° (ENE) 11:50:06 145.865
Cosmos 2499 05 May 11:42:31 11:48:31 23° 72° (ENE) 11:54:47 435.465 / 435.565
PHONESAT 2.4 05 May 11:49:44 11:52:30 28° 359° (N) 11:55:16 2401.200-2431.200
DX 1 05 May 11:56:49 11:57:12 10° 92° (E) 11:57:34 434.975-435.025
VELOX 1 05 May 12:07:20 12:10:17 17° 94° (E) 12:13:13 145.980
HUMSAT D 05 May 12:18:01 12:21:45 35° 287° (WNW) 12:25:28 437.325/437.525
AO-85 05 May 12:22:56 12:28:18 64° 115° (ESE) 12:33:41 145.980
DELFI C3 05 May 12:23:41 12:25:33 13° 293° (WNW) 12:27:26 145.870
DUCHIFAT 1 05 May 12:33:00 12:37:10 55° 259° (W) 12:41:22 145.980
QB50P2 05 May 12:37:35 12:41:37 41° 261° (W) 12:45:42 145.880/145.840
AISAT 05 May 12:38:46 12:43:02 42° 99° (E) 12:47:14 437.250
POLYITAN 1 05 May 12:39:47 12:43:49 40° 261° (W) 12:47:53 437.675
POPSAT HIP 1 05 May 12:41:37 12:45:38 39° 261° (W) 12:49:41 437.405
AIST 1 05 May 12:44:19 12:48:20 35° 269° (W) 12:52:20
QB50P1 05 May 12:44:40 12:48:36 36° 262° (W) 12:52:33 145.935-145.965
50 SAT 05 May 13:01:51 13:05:30 78° 284° (WNW) 13:09:10 437.505
BUGSAT 1 05 May 13:02:54 13:07:02 52° 260° (W) 13:11:12 437.445
CUBEBUG 1 05 May 13:07:23 13:11:51 89° 112° (ESE) 13:16:15 437.445
ESTCUBE 1 05 May 13:08:52 13:13:21 61° 285° (WNW) 13:17:48 437.505/2401.250
NANOSAT C BR1 05 May 13:19:28 13:22:00 15° 266° (W) 13:24:33 145.865
PHONESAT 2.4 05 May 13:26:42 13:29:45 45° 16° (NNE) 13:32:47 2401.200-2431.200
JAS-2 05 May 13:29:18 13:35:09 62° 73° (ENE) 13:41:50 435.910
DX 1 05 May 13:29:23 13:33:41 57° 286° (WNW) 13:37:58 434.975-435.025
UKube-1 05 May 13:30:26 13:34:45 69° 285° (WNW) 13:39:03 .
Cosmos 2499 05 May 13:34:12 13:42:01 64° 267° (W) 13:50:24 435.465 / 435.565
GONETS M04 05 May 13:34:22 13:42:09 38° 273° (W) 13:49:52
ISS 05 May 13:38:19 13:41:24 37° 38° (NE) 13:44:27 145.825
O/OREOS (USA 219) 05 May 13:42:20 13:44:05 12° 98° (E) 13:45:50 437.305
VELOX 1 05 May 13:42:45 13:46:49 35° 288° (WNW) 13:50:52 145.980
SPROUT 05 May 13:54:56 13:59:13 69° 284° (WNW) 14:03:26 437.525
Oscar 19 05 May 14:00:25 14:05:34 73° 75° (ENE) 14:10:46 437.125/150
AO-85 05 May 14:05:24 14:09:14 19° 312° (NW) 14:13:03 145.980
AO-7 05 May 14:11:51 14:14:27 12° 50° (NE) 14:17:02 29.400- 29.500
PCSat 05 May 14:15:10 14:17:28 13° 103° (ESE) 14:19:47 145.827
AISAT 05 May 14:16:31 14:19:07 15° 294° (WNW) 14:21:41 437.250
TISAT 1 05 May 14:18:09 14:22:19 57° 100° (E) 14:26:25 437.305
Gurwin Techsat 1B 05 May 14:18:30 14:23:28 42° 72° (ENE) 14:28:28 435.225
CUSAT 1 05 May 14:32:02 14:33:00 11° 81° (E) 14:34:00 437.405
BEESAT 05 May 14:41:09 14:44:13 17° 94° (E) 14:47:17 436.000
PHONESAT 2.4 05 May 15:03:38 15:06:34 35° 210° (SSW) 15:09:28 2401.200-2431.200
ISS 05 May 15:15:31 15:17:37 16° 232° (SW) 15:19:43 145.825
JAS-2 05 May 15:17:03 15:20:51 17° 271° (W) 15:24:56 435.910
O/OREOS (USA 219) 05 May 15:18:28 15:22:58 52° 293° (WNW) 15:27:27 437.305
ITAMSAT 1 05 May 15:25:26 15:30:36 79° 75° (ENE) 15:35:47 435.822/435.867
ITUPSAT 1 05 May 15:36:46 15:41:32 69° 102° (ESE) 15:46:18 437.325
SO-50 05 May 15:36:53 15:40:56 28° 52° (NE) 15:44:52 436.795
DANDE 05 May 15:39:49 15:42:09 21° 88° (E) 15:44:51 436.750
Oscar 19 05 May 15:44:21 15:45:21 10° 269° (W) 15:46:21 437.125/150
SWISSCUBE 05 May 15:44:34 15:49:21 85° 284° (WNW) 15:54:08 437.505
PCSat 05 May 15:54:48 16:00:11 69° 297° (WNW) 16:05:37 145.827
TISAT 1 05 May 15:56:48 15:57:25 10° 295° (WNW) 15:58:02 437.305
AO-7 05 May 15:57:28 16:05:36 64° 69° (ENE) 16:13:45 29.400- 29.500
KKS-1 05 May 15:58:48 16:00:41 12° 93° (E) 16:02:33 437.445
Gurwin Techsat 1B 05 May 15:59:44 16:03:33 20° 266° (W) 16:07:23 435.225
CUSAT 1 05 May 16:11:04 16:14:18 33° 287° (WNW) 16:18:25 437.405
BEESAT 05 May 16:17:40 16:22:09 41° 288° (WNW) 16:26:35 436.000
HORYU 2 05 May 16:20:25 16:23:09 16° 67° (ENE) 16:25:51 437.375
MOZHAYETS 4 05 May 16:22:48 16:25:36 16° 93° (E) 16:28:25
